• In Belarus
  • List of Countries
  • For 7 days
  • Water Temperature
  • Satellite Maps
  • Weather Map
  • Weather Widgets
  • user-avatar
    Login

    Hourly Weather Lubango

    Today, 20 November, Monday

    Time Temperature Precipitation Wind Pressure Humidity
    00:00 +15°C° 0.3 mm 0 mps 609 mmHg 50%
    01:00 +16°C° 0 mm 1 mps 609 mmHg 55%
    02:00 +15°C° 0.1 mm 0 mps 609 mmHg 56%
    03:00 +15°C° 0.1 mm 0 mps 608 mmHg 57%
    04:00 +15°C° 0.1 mm 0 mps 608 mmHg 58%
    05:00 +16°C° 0 mm 0 mps 609 mmHg 54%
    06:00 +17°C° 0 mm 0 mps 610 mmHg 50%
    07:00 +18°C° 0 mm 0 mps 610 mmHg 47%
    08:00 +22°C° 0.1 mm 1 mps 611 mmHg 41%
    09:00 +25°C° 0.1 mm 1 mps 612 mmHg 36%
    10:00 +27°C° 0.1 mm 1 mps 613 mmHg 30%
    11:00 +27°C° 0 mm 2 mps 612 mmHg 29%
    12:00 +28°C° 0 mm 2 mps 612 mmHg 29%
    13:00 +26°C° 0 mm 3 mps 612 mmHg 32%
    14:00 +26°C° 0 mm 3 mps 612 mmHg 32%
    15:00 +26°C° 0 mm 3 mps 611 mmHg 32%
    16:00 +26°C° 0 mm 2 mps 611 mmHg 33%
    17:00 +24°C° 0 mm 2 mps 611 mmHg 36%
    18:00 +23°C° 0 mm 2 mps 610 mmHg 39%
    19:00 +20°C° 0 mm 2 mps 610 mmHg 43%
    20:00 +19°C° 0.1 mm 2 mps 610 mmHg 47%
    21:00 +19°C° 0.1 mm 1 mps 610 mmHg 50%
    22:00 +18°C° 0.1 mm 1 mps 610 mmHg 54%
    23:00 +18°C° 0.2 mm 1 mps 610 mmHg 55%

    Tomorrow, 21 November, Tuesday

    Time Temperature Precipitation Wind Pressure Humidity
    00:00 +18°C° 0.2 mm 1 mps 609 mmHg 55%
    01:00 +18°C° 0.2 mm 1 mps 609 mmHg 56%
    02:00 +16°C° 0.4 mm 1 mps 609 mmHg 57%
    03:00 +16°C° 0.4 mm 1 mps 609 mmHg 58%
    04:00 +16°C° 0.4 mm 1 mps 608 mmHg 60%
    05:00 +18°C° 0.3 mm 1 mps 609 mmHg 57%
    06:00 +19°C° 0.3 mm 1 mps 610 mmHg 54%
    07:00 +20°C° 0.3 mm 1 mps 610 mmHg 52%
    08:00 +22°C° 0.2 mm 1 mps 611 mmHg 46%
    09:00 +24°C° 0.2 mm 1 mps 612 mmHg 41%
    10:00 +26°C° 0.2 mm 1 mps 613 mmHg 36%
    11:00 +26°C° 0.3 mm 1 mps 612 mmHg 36%
    12:00 +26°C° 0.3 mm 2 mps 612 mmHg 37%
    13:00 +26°C° 0.3 mm 2 mps 611 mmHg 38%
    14:00 +25°C° 0.6 mm 2 mps 610 mmHg 41%
    15:00 +24°C° 0.6 mm 2 mps 610 mmHg 44%
    16:00 +23°C° 0.6 mm 2 mps 609 mmHg 47%
    17:00 +21°C° 0.6 mm 2 mps 609 mmHg 49%
    18:00 +22°C° 0.6 mm 1 mps 609 mmHg 51%
    19:00 +21°C° 0.6 mm 1 mps 609 mmHg 53%
    20:00 +20°C° 0 mm 1 mps 609 mmHg 54%
    21:00 +20°C° 0 mm 1 mps 609 mmHg 55%
    22:00 +19°C° 0 mm 1 mps 610 mmHg 56%
    23:00 +19°C° 0 mm 1 mps 609 mmHg 57%

    Day after tomorrow, 22 November, Wednesday

    Time Temperature Precipitation Wind Pressure Humidity
    00:00 +18°C° 0 mm 1 mps 609 mmHg 57%
    01:00 +18°C° 0 mm 1 mps 608 mmHg 57%
    02:00 +18°C° 0 mm 1 mps 608 mmHg 56%
    03:00 +18°C° 0 mm 1 mps 608 mmHg 56%
    04:00 +18°C° 0 mm 1 mps 608 mmHg 55%
    05:00 +19°C° 0 mm 1 mps 608 mmHg 52%
    06:00 +20°C° 0 mm 1 mps 609 mmHg 49%
    07:00 +21°C° 0 mm 1 mps 610 mmHg 46%
    08:00 +23°C° 0 mm 1 mps 611 mmHg 39%
    09:00 +26°C° 0 mm 1 mps 612 mmHg 32%
    10:00 +28°C° 0 mm 2 mps 613 mmHg 24%
    11:00 +29°C° 0 mm 2 mps 613 mmHg 23%
    12:00 +29°C° 0 mm 2 mps 612 mmHg 22%
    13:00 +30°C° 0 mm 2 mps 611 mmHg 21%
    14:00 +29°C° 0 mm 3 mps 611 mmHg 23%
    15:00 +28°C° 0 mm 3 mps 610 mmHg 25%
    16:00 +27°C° 0 mm 3 mps 609 mmHg 27%
    17:00 +25°C° 0 mm 3 mps 609 mmHg 31%
    18:00 +22°C° 0 mm 3 mps 609 mmHg 35%
    19:00 +20°C° 0 mm 2 mps 608 mmHg 39%
    20:00 +20°C° 0 mm 2 mps 609 mmHg 43%
    21:00 +20°C° 0 mm 1 mps 609 mmHg 46%
    22:00 +19°C° 0 mm 1 mps 609 mmHg 50%
    23:00 +18°C° 0 mm 1 mps 608 mmHg 51%

    23 November, Thursday

    Time Temperature Precipitation Wind Pressure Humidity
    00:00 +18°C° 0 mm 1 mps 608 mmHg 52%
    01:00 +18°C° 0 mm 1 mps 607 mmHg 53%
    02:00 +16°C° 0 mm 1 mps 607 mmHg 53%
    03:00 +16°C° 0 mm 1 mps 607 mmHg 53%
    04:00 +16°C° 0 mm 1 mps 607 mmHg 53%
    05:00 +18°C° 0.1 mm 1 mps 608 mmHg 50%
    06:00 +19°C° 0.1 mm 1 mps 608 mmHg 47%
    07:00 +20°C° 0.1 mm 1 mps 609 mmHg 45%
    08:00 +23°C° 0 mm 1 mps 610 mmHg 39%
    09:00 +25°C° 0 mm 1 mps 611 mmHg 34%
    10:00 +27°C° 0 mm 2 mps 612 mmHg 28%
    11:00 +27°C° 0 mm 2 mps 611 mmHg 29%
    12:00 +27°C° 0 mm 2 mps 611 mmHg 29%
    13:00 +27°C° 0 mm 2 mps 610 mmHg 30%
    14:00 +27°C° 0 mm 2 mps 609 mmHg 31%
    15:00 +26°C° 0 mm 3 mps 609 mmHg 33%
    16:00 +26°C° 0 mm 3 mps 609 mmHg 34%
    17:00 +24°C° 0 mm 3 mps 608 mmHg 41%
    18:00 +21°C° 0 mm 2 mps 608 mmHg 48%
    19:00 +19°C° 0 mm 2 mps 608 mmHg 54%
    20:00 +18°C° 0 mm 2 mps 608 mmHg 59%
    21:00 +18°C° 0 mm 2 mps 608 mmHg 64%
    22:00 +18°C° 0 mm 1 mps 608 mmHg 68%
    23:00 +16°C° 0 mm 1 mps 608 mmHg 71%

    24 November, Friday

    Time Temperature Precipitation Wind Pressure Humidity
    00:00 +16°C° 0 mm 1 mps 608 mmHg 73%
    01:00 +15°C° 0 mm 1 mps 607 mmHg 76%
    02:00 +15°C° 0 mm 1 mps 607 mmHg 76%
    03:00 +15°C° 0 mm 1 mps 607 mmHg 77%
    04:00 +15°C° 0 mm 1 mps 607 mmHg 78%
    05:00 +16°C° 0 mm 1 mps 608 mmHg 73%
    06:00 +16°C° 0 mm 1 mps 609 mmHg 69%
    07:00 +18°C° 0 mm 1 mps 609 mmHg 64%
    08:00 +20°C° 0.2 mm 1 mps 610 mmHg 56%
    09:00 +21°C° 0.2 mm 1 mps 610 mmHg 48%
    10:00 +23°C° 0.2 mm 1 mps 611 mmHg 40%
    11:00 +24°C° 0.1 mm 1 mps 611 mmHg 36%
    12:00 +25°C° 0.1 mm 2 mps 610 mmHg 33%
    13:00 +26°C° 0.1 mm 2 mps 610 mmHg 29%
    14:00 +26°C° 0 mm 2 mps 610 mmHg 30%
    15:00 +25°C° 0 mm 3 mps 610 mmHg 31%
    16:00 +25°C° 0 mm 3 mps 609 mmHg 32%
    17:00 +22°C° 0 mm 3 mps 609 mmHg 39%
    18:00 +20°C° 0 mm 2 mps 609 mmHg 47%
    19:00 +18°C° 0 mm 2 mps 608 mmHg 54%
    20:00 +18°C° 0 mm 2 mps 608 mmHg 60%
    21:00 +18°C° 0 mm 1 mps 609 mmHg 66%
    22:00 +16°C° 0 mm 1 mps 609 mmHg 72%
    23:00 +15°C° 0 mm 1 mps 608 mmHg 75%

    25 November, Saturday

    Time Temperature Precipitation Wind Pressure Humidity
    00:00 +15°C° 0 mm 1 mps 608 mmHg 78%
    01:00 +14°C° 0 mm 1 mps 607 mmHg 81%
    02:00 +13°C° 0 mm 0 mps 607 mmHg 81%
    03:00 +13°C° 0 mm 0 mps 607 mmHg 81%
    04:00 +13°C° 0 mm 0 mps 607 mmHg 81%
    05:00 +14°C° 0 mm 0 mps 608 mmHg 74%
    06:00 +15°C° 0 mm 0 mps 609 mmHg 66%
    07:00 +16°C° 0 mm 0 mps 610 mmHg 59%
    08:00 +19°C° 0 mm 0 mps 610 mmHg 48%
    09:00 +24°C° 0 mm 1 mps 611 mmHg 37%
    10:00 +26°C° 0 mm 1 mps 612 mmHg 27%
    11:00 +27°C° 0 mm 1 mps 612 mmHg 26%
    12:00 +28°C° 0 mm 2 mps 612 mmHg 24%
    13:00 +30°C° 0 mm 2 mps 612 mmHg 23%
    14:00 +28°C° 0 mm 2 mps 611 mmHg 26%
    15:00 +27°C° 0 mm 3 mps 610 mmHg 28%
    16:00 +26°C° 0 mm 3 mps 609 mmHg 31%
    17:00 +24°C° 0 mm 3 mps 609 mmHg 35%
    18:00 +21°C° 0 mm 3 mps 609 mmHg 39%
    19:00 +19°C° 0 mm 2 mps 609 mmHg 43%
    20:00 +18°C° 0 mm 2 mps 609 mmHg 46%
    21:00 +18°C° 0 mm 1 mps 609 mmHg 49%
    22:00 +16°C° 0 mm 1 mps 609 mmHg 52%
    23:00 +16°C° 0 mm 1 mps 608 mmHg 54%
    Show more